Regional Weather Roundup
Issued by NWS

Home | Current Version | Previous Version | Text Only | Print | Product List | Glossary On
Versions: 1 2 3 4 5 6 7 8 9 10 11 12 13 14 15 16 17 18 19 20 21 22 23 24 25 26 27 28 29 30 31 32 33 34 35 36 37 38 39 40 41 42 43 44 45 46 47 48 49 50
000
ASUS45 KBOU 012210
RWRCO

WEATHER ROUNDUP FOR COLORADO
NATIONAL WEATHER SERVICE DENVER/BOULDER CO
400 PM MDT WED JUL 01 2015

NOTE: "FAIR" INDICATES FEW OR NO CLOUDS BELOW 12000 FEET WITH NO
SIGNIFICANT WEATHER AND/OR OBSTRUCTIONS TO VISIBILITY.

COZ001>005-013-030-031-012300-
...NORTHWEST COLORADO...

CITY           SKY/WX    TMP DP  RH WIND       PRES   REMARKS
CRAIG          MOSUNNY   89  47  23 SW8       30.18F
HAYDEN         MOSUNNY   82  45  26 SW5       30.22F
MEEKER         MOSUNNY   86  49  27 VRB6      30.19F
MOUNT WERNER   NOT AVBL
STEAMBOAT SPGS MOSUNNY   79  47  33 CALM      30.25F
WALDEN         PTSUNNY   70  52  52 E8        30.36F
$$

COZ006>008-011-012300-
...WEST CENTRAL VALLEYS...

CITY           SKY/WX    TMP DP  RH WIND       PRES   REMARKS
GRAND JUNCTION PTSUNNY   96  47  18 W9        30.01F
MONTROSE       PTSUNNY   93  43  17 N9        30.10F
EAGLE          MOSUNNY   84  45  24 CALM      30.21F
RIFLE          MOSUNNY   92  43  18 W6        30.08F
DELTA          PTSUNNY   99  41  13 E8        30.04F
NUCLA          PTSUNNY   91  36  14 NE5       30.13F
$$

COZ017>023-064>068-012300-
...SOUTHWEST COLORADO...

CITY           SKY/WX    TMP DP  RH WIND       PRES   REMARKS
DURANGO        MOSUNNY   92  40  16 SW7       30.13F
CORTEZ         SUNNY     94  46  19 W7        30.08F
PAGOSA SPRINGS CLOUDY    83  41  21 CALM      30.24F THUNDER
TELLURIDE      PTSUNNY   80  41  25 W10       30.42S
WOLF CREEK PAS NOT AVBL
$$

COZ009-010-012-014-032>034-037-058>063-012300-
...CENTRAL COLORADO...

CITY           SKY/WX    TMP DP  RH WIND       PRES   REMARKS
ASPEN          CLOUDY    82  47  29 N12       30.29F
BUENA VISTA    TSTM      72  48  43 S5        30.30F
COPPER MTN     CLOUDY    61  37  41 W18       30.68R
BERTHOUD PASS  CLOUDY    46  37  71 N8        30.72F THUNDER
COTTONWOOD PAS NOT AVBL
GUNNISON       PTSUNNY   79  46  31 N14       30.30S
KREMMLING      CLOUDY    77  41  27 N12       30.30S THUNDER
LEADVILLE      CLOUDY    65  39  38 N5        30.48R
MONARCH PASS   CLOUDY    57  36  44 NE7       30.75F THUNDER
SALIDA         CLOUDY    73  52  47 SW6       30.35S
SUNLIGHT       PTSUNNY   68  43  40 CALM      30.59F
WILKERSON PASS TSTM      50  46  87 E16       30.64R VSB 3/4
$$

COZ069>075-012300-
...SAN LUIS VALLEY/SANGRE DE CRISTO MOUNTAINS...

CITY           SKY/WX    TMP DP  RH WIND       PRES   REMARKS
ALAMOSA        SUNNY     85  41  21 S8        30.22F
LA VETA PASS   PTSUNNY   63  45  51 MISG      30.51S THUNDER
SAGUACHE       TSTM      70  50  49 E8G18     30.28R
$$

COZ035-036-038>040-012300-
...NORTHERN COLORADO FRONT RANGE...

CITY           SKY/WX    TMP DP  RH WIND       PRES   REMARKS
DENVER INTL AP CLOUDY    85  52  32 S8        30.12S
DMNS CITY PARK   N/A     80  54  41 SW6G15    30.13S
AURORA         PTSUNNY   84  55  36 E6        30.15F
FRONT RANGE AP CLOUDY    84  55  37 S9        30.14S
ERIE MUNI ARPT CLOUDY    78  54  42 NW14G26   30.13R
BOULDER MUN AP CLOUDY    77  59  53 N7        30.16R
CENTENNIAL     CLOUDY    78  52  40 SE5       30.17F
BROOMFIELD     PTSUNNY   79  55  44 SW10      30.17S
FORT COLLINS   CLOUDY    77  55  47 W14       30.12R
LONGMONT       LGT RAIN  79  55  44 N10       30.15S
$$

COZ041-046-047-076>085-087-088-012300-
...PIKES PEAK/PALMER DIVIDE AND SOUTHERN FOOTHILLS...

CITY           SKY/WX    TMP DP  RH WIND       PRES   REMARKS
COLO. SPRINGS  CLOUDY    80  51  36 SE8       30.20R
A. F. ACADEMY  TSTM      66  57  72 W22G28    30.24R
ELLICOTT       CLOUDY   N/A N/A N/A E6        30.18S
FALCON         CLOUDY    77  46  33 E7        30.26F
FORT CARSON    CLOUDY    80  55  41 SE2       30.16S
LIMON          MOSUNNY   83  56  39 S9        30.13R
MONUMENT HILL  CLOUDY    72  54  53 E3        30.26F
TRINIDAD       PTSUNNY   89  49  25 SE12      30.14F
$$

COZ042>045-048>051-090-091-012300-
...NORTHEAST COLORADO...

CITY           SKY/WX    TMP DP  RH WIND       PRES   REMARKS
GREELEY ARPT   CLOUDY    90  52  27 W3        30.08R
AKRON          MOSUNNY   91  48  22 E7        30.05F
BURLINGTON     SUNNY     95  47  19 NE15      30.02F
WRAY           MOSUNNY   98  49  19 N6        29.98S
STERLING       MOSUNNY   90  52  27 E3          N/A
HOLYOKE        SUNNY     97  52  21 NE7       29.98F
FORT MORGAN    MOSUNNY   87  50  27 S5        30.06S
$$

COZ086-089-092>099-012300-
...SOUTHEAST COLORADO...

CITY           SKY/WX    TMP DP  RH WIND       PRES   REMARKS
PUEBLO         MOSUNNY   94  50  22 SE8       30.04F
LA JUNTA       SUNNY     96  52  22 SE12G22   30.01S
LAMAR          SUNNY     97  52  21 E9        29.94F
SPRINGFIELD      N/A     95  50  21 E8G22     30.00F
$$


USA.gov is the U.S. government's official web portal to all federal, state and local government web resources and services.